Regional Weather Roundup
Issued by NWS

Home | Current Version | Previous Version | Graphics & Text | Print | Product List | Glossary On
Versions: 1 2 3 4 5 6 7 8 9 10 11 12 13 14 15 16 17 18 19 20 21 22 23 24 25 26 27 28 29 30 31 32 33 34 35 36 37 38 39 40 41 42 43 44 45 46 47 48 49 50
000
ASUS43 KMKX 191111
RWRWI

WISCONSIN REGIONAL WEATHER ROUNDUP
NATIONAL WEATHER SERVICE MILWAUKEE/SULLIVAN WI
500 AM CST FRI DEC 19 2014

NOTE: "FAIR" INDICATES FEW OR NO CLOUDS BELOW 12,000 FEET WITH NO
SIGNIFICANT WEATHER AND/OR OBSTRUCTIONS TO VISIBILITY.

WIZ001-002-006>008-014>016-023>028-191200-
NORTHWEST WISCONSIN

CITY           SKY/WX    TMP DP  RH WIND       PRES   REMARKS
SUPERIOR ARPT  CLOUDY    23  20  89 SW6       30.26S WCI  16
ASHLAND        CLOUDY    22  20  92 CALM      30.27S
HAYWARD        CLOUDY    22  19  89 S6        30.23F WCI  14
SIREN          CLOUDY    22  19  87 S5        30.25F WCI  16
CUMBERLAND     CLOUDY    21  19  93 S7        30.23F WCI  13
RICE LAKE      CLOUDY    23  19  86 SE6       30.26F WCI  16
CHETEK         CLOUDY    22  20  89 SW5       30.25S WCI  16
LADYSMITH      CLOUDY    24  21  88 S6        30.25F WCI  17
EAU CLAIRE     CLOUDY    23  18  81 SE5       30.26S WCI  17
MENOMONIE      CLOUDY    24  19  83 SE5       30.26F WCI  18
NEW RICHMOND   CLOUDY    22  19  88 S5        30.26S WCI  16
OSCEOLA        CLOUDY    23  19  85 S3        30.28F
$$

WIZ003>005-009-010-017-018-191200-
NORTH CENTRAL WISCONSIN

CITY           SKY/WX    TMP DP  RH WIND       PRES   REMARKS
MANITOWISH WTR CLOUDY    11  10  95 CALM      30.22S
ARBOR VITAE    FOG       11   8  87 CALM      30.22S VSB 1/4
WOODRUFF       FOG       11   8  87 CALM      30.22S VSB 1/4
RHINELANDER    FOG        3   0  87 CALM      30.22S VSB 1/4
EAGLE RIVER    PTCLDY     1  -4  80 CALM      30.22S
LAND O LAKES   CLOUDY    -3  -7  84 CALM      30.23S
PHILLIPS       CLOUDY    17  15  93 CALM      30.22S
TOMAHAWK       CLOUDY     7   4  89 CALM      30.24S
MEDFORD        CLOUDY    21  19  91 CALM      30.22S
MERRILL        PTCLDY    10   8  92 CALM      30.24F
$$

WIZ029-030-035-036-043>047-191200-
CENTRAL WISCONSIN

CITY           SKY/WX    TMP DP  RH WIND       PRES   REMARKS
WAUSAU         PTCLDY    16  13  88 NW3       30.24S
MOSINEE        PTCLDY    18  18 100 CALM      30.26S
MARSHFIELD     CLOUDY    24  20  84 CALM      30.24F
STEVENS POINT  MOCLDY    11   9  89 CALM      30.27R
WAUPACA        PTCLDY    17  15  89 CALM      30.28S
WAUTOMA        PTCLDY    14  12  92 CALM      30.29R
WISC RAPIDS    CLOUDY    23  19  85 CALM      30.28S
CAMP DOUGLAS   CLOUDY    24  24  99 SW5       30.27S WCI  18
$$

WIZ011>013-019>022-031-037>040-048>050-191200-
NORTHEAST WISCONSIN

CITY           SKY/WX    TMP DP  RH WIND       PRES   REMARKS
ANTIGO         CLEAR      9   7  92 CALM      30.23S
SHAWANO        CLEAR     16  13  89 CALM      30.29R
OCONTO         CLEAR     14  13  97 CALM      30.29R
STURGEON BAY   CLEAR     23  19  86 N3        30.28S
GREEN BAY      CLEAR     17  15  92 CALM      30.28S
MANITOWOC      CLOUDY    25  22  88 NW5       30.27S WCI  19
APPLETON       NOT AVBL
CLINTONVILLE   CLEAR     16  14  93 CALM      30.28R
OSHKOSH        PTCLDY    19  15  84 W3        30.28R
$$

WIZ032>034-041-042-053>061-191200-
SOUTHWEST WISCONSIN

CITY           SKY/WX    TMP DP  RH WIND       PRES   REMARKS
LA CROSSE      CLOUDY    25  17  72 CALM      30.29F
SPARTA         CLOUDY    24  19  82 W5        30.29S WCI  18
VIROQUA        CLOUDY    22  19  88 W3        30.25S
BOSCOBEL       CLOUDY    26  18  71 SW3       30.30S
PRAIRIE DU CHI CLOUDY    26  19  76 CALM      30.29F
PLATTEVILLE    CLOUDY    24  20  83 CALM      30.28S
$$

WIZ056-057-062-063-064-067-068-191200-
SOUTH CENTRAL WISCONSIN

CITY           SKY/WX    TMP DP  RH WIND       PRES   REMARKS
REEDSBURG      CLOUDY    24  20  87 W3        30.27S
BARABOO/DELLS  CLOUDY    24  20  83 CALM      30.27S
LONE ROCK      CLOUDY    28  19  69 VRB3      30.30S
MINERAL POINT  CLOUDY    27  21  80 CALM      30.26S
MADISON        CLOUDY    26  20  77 CALM      30.27S
MIDDLETON      CLOUDY    27  21  80 W3        30.28R
WATERTOWN      CLOUDY    25  22  89 CALM      30.27S
MONROE         CLOUDY    27  23  86 CALM      30.26S
JANESVILLE     CLOUDY    28  23  80 CALM      30.28R
$$

WIZ051-052-058>065-066-070>072-191200-
SOUTHEAST WISCONSIN

CITY           SKY/WX    TMP DP  RH WIND       PRES   REMARKS
MILWAUKEE      CLOUDY    27  18  69 NW5       30.28R WCI  22
WAUKESHA       CLOUDY    23  19  86 NW6       30.28S WCI  16
MILWAUKEE/TIMM PTCLDY    23  18  80 W5        30.28S WCI  17
RACINE         CLOUDY    27  21  78 NW5       30.29R WCI  22
BURLINGTON     CLOUDY    24  20  83 W6        30.28R WCI  17
KENOSHA        CLOUDY    27  21  78 NW8       30.27S WCI  19
FOND DU LAC    CLEAR     16  12  84 CALM      30.28R
SHEBOYGAN      CLOUDY    22  18  85 W8        30.27R WCI  12
WEST BEND      CLEAR     19  18  93 W3        30.26S
JUNEAU         MOCLDY    20  18  93 CALM      30.28S
$$

LSZ147-162-191200-
LAKE SUPERIOR

STATION/POSITION TIME  TEMP    WIND        PRES    WAVE
                       AIR SEA DIR/SP/G            HT/PER
                 (UTC) (F)     (DEG/KT/KT) (MB)    (FT/S)
DEVILS ISLAND    1100   24     200/  9/ 12 1026.3F
PORT WING        1000   23     190/  2/  3 1025.1F
SAXON HARBOR     1000   16        CALM     1025.4S
$$

LMZ867-665-643>646-191200-
LAKE MICHIGAN

STATION/POSITION TIME  TEMP    WIND        PRES    WAVE
                       AIR SEA DIR/SP/G            HT/PER
                 (UTC) (F)     (DEG/KT/KT) (MB)    (FT/S)
CHAMBERS ISLAND  1000   24     310/  8/  8 1025.4S
NORTHPORT PIER   1004   27     340/  6/  9 1025.1S
SISTER BAY       1043           20/  7/  8   N/A
ALGOMA LAKESHORE 1014          340/  8/  9   N/A
KEWAUNEE LAKESHO 1000   23     300/  3/  6 1024.0S
SHEBOYGAN LAKESH 1100   24 33  280/  6/  8 1026.2R
PORT WASHINGTON  1000   24     300/  6/  8 1025.7
MILWAUKEE LAKESH 1000   27     300/  6/  8   N/A
KENOSHA   LAKESH 1100   27     300/  7/ 11 1025.1S
$$

TC  - TEMPERATURE IN CELSIUS
VSB - VISIBILITY IN STATUTE MILES
WCI - WIND CHILL INDEX
HX  - HEAT INDEX



USA.gov is the U.S. government's official web portal to all federal, state and local government web resources and services.